Aérodrome :
LOGIN :

S'inscrire | Disclaimer

   EN    FR    IT 

 










Légende :    VFR   VFR Marginal   IFR   IFR Intensif   IFR Très Intensif
Visi : 
Plafond : 
>= 8 km
>= 3000ft
5 à 8 km
1000 à 3000 ft
1500m à 5 km
500 à 1000 ft
800 à 1500m
200 à 500 ft
< 800m
< 200 ft
Symboles :   Orages  Brouillard  Fortes neiges  Fortes précipitations  Vent > 20 kt
SIGMETs :   Divers  Orages  Givrage  Turbulence  Onde Orograph.  Cendres Volcan.







- Altitude de l'aérodrome : 386 ft
- Code IATA : QOE


ETNN - Nörvenich Airforce Base

DERNIER METAR :
  • 241420Z 34009KT 9999 SCT050 BKN100 19/08 Q1023 BLU

METARs EXPIRÉS :
  • 241320Z 32008KT 9999 FEW040 BKN100 18/07 Q1023 BLU
  • 241220Z 31008KT 9999 FEW040 SCT100 BKN300 18/07 Q1023 BLU+
  • 241120Z 32009KT 9999 SCT030 SCT100 BKN300 18/09 Q1023 BLU+

TAF TAF ETNN
Valide du 24 à 14h jusqu'au 24 à 23h UTC


241310Z 2414/2423 33008KT 9999 NSW SCT020 BKN040
BECMG 2418/2420 30005KT 7000 -RADZ BKN020 BKN150 BY ETGL
Pas de NOTAMs connus pour ce terrain.



MET'MAP, la Météo Aéronautique d'un coup d'oeil ! - Copyright ORBIFLY Décembre 2007 - Disclaimer

ORBIFLY MET'MAP TEAM :

Programmation & Développement : Alexandra Zaïnal
Conception & Développement : Baudouin d'Aumeries
Co-Programmation & Développement : Marc-Olivier Méhu
Soutien technique & logistique : Manuel Goepfert

Contact : metmap@orbifly.com




SOURCES & CREDITS :

   NOAA